Regional Weather Roundup
Issued by NWS

Home | Current Version | Previous Version | Graphics & Text | Print | Product List | Glossary On
Versions: 1 2 3 4 5 6 7 8 9 10 11 12 13 14 15 16 17 18 19 20 21 22 23 24 25 26 27 28 29 30 31 32 33 34 35 36 37 38 39 40 41 42 43 44 45 46 47 48 49 50
000
ASUS43 KLSX 311659
RWRMO

WEATHER SUMMARY FOR MISSOURI
NATIONAL WEATHER SERVICE SPRINGFIELD MO
1200 PM CDT THU JUL 31 2014

NOTE: "FAIR" INDICATES FEW OR NO CLOUDS BELOW 12,000 FEET WITH NO
       SIGNIFICANT WEATHER AND/OR OBSTRUCTIONS TO VISIBILITY.
       CURRENT SKY AND/OR WEATHER CONDITIONS ARE NOT AVAILABLE FOR
       CHILLICOTHE AND FARMINGTON.

MOZ001>031-035>038-043-044-053-054-311800-
...NORTHERN AND WESTERN MISSOURI...

CITY           SKY/WX    TMP DP  RH WIND       PRES   REMARKS
KANSAS CTY INT PTSUNNY   76  63  64 W5        30.13R
KANSAS C DTWN  PTSUNNY   79  53  40 S3        30.11S
LEE`S SUMMIT   MOSUNNY   77  58  51 NE5       30.13R
ST JOSEPH      MOSUNNY   79  57  46 S7        30.12F
KIRKSVILLE     SUNNY     79  57  46 VRB3      30.12F

$$
MOZ066>068-077>081-088>096-101>105-311800-
...SOUTHWEST MISSOURI...

CITY           SKY/WX    TMP DP  RH WIND       PRES   REMARKS
SPRINGFIELD    PTSUNNY   76  61  59 S6        30.11S
JOPLIN         PTSUNNY   76  63  64 VRB3      30.11S

$$
MOZ032>034-039>042-045>050-055>058-069>072-311800-
...CENTRAL MISSOURI...

CITY           SKY/WX    TMP DP  RH WIND       PRES   REMARKS
COLUMBIA       SUNNY     80  55  42 CALM      30.11S
JEFFERSON CITY MOSUNNY   80  55  42 CALM      30.09F
ROLLA          MOSUNNY   80  54  40 VRB3      30.10S
SEDALIA        MOSUNNY   81  57  43 NE6       30.12S
OSAGE BEACH    MOSUNNY   82  59  44 SE5       30.10S

$$
MOZ051-052-059>065-311800-
...EAST CENTRAL MISSOURI...

CITY           SKY/WX    TMP DP  RH WIND       PRES   REMARKS
ST LOUIS INTL  MOSUNNY   82  58  43 CALM      30.10S
SPIRIT OF STL  PTSUNNY   82  60  47 N5        30.08F
ST CHARLES     MOSUNNY   80  59  48 CALM      30.09F

$$
MOZ072>076-082>087-097>100-106>115-311800-
...SOUTH CENTRAL AND SOUTHEAST MISSOURI...

CITY           SKY/WX    TMP DP  RH WIND       PRES   REMARKS
CAPE GIRARDEAU MOSUNNY   78  64  61 S5        30.11S
FARMINGTON     MOSUNNY   79  63  57 S7        30.13F
POPLAR BLUFF   CLOUDY    70  65  84 SW6       30.11S
WEST PLAINS    PTSUNNY   74  63  68 S8        30.13F

$$



USA.gov is the U.S. government's official web portal to all federal, state and local government web resources and services.